Location: La Junie
(44.7428°N, 2.1773°E)
Time: 21:35:06
(UTC+00:00)

COSMOS 2406 - Pass Details

Date: 15 May 2026
Orbit: 846 x 858 km, 71.0° (Epoch: 10 June)

Event Time Altitude Azimuth Distance (km) Brightness Sun altitude
Rises 19:37:05 0° 174° (S) 3,417 6.0 -4.5°
Reaches altitude 10° 19:39:46 10° 164° (SSE) 2,485 5.2 -4.9°
Maximum altitude 19:44:43 31° 104° (ESE) 1,459 4.0 -5.7°
Drops below altitude 10° 19:49:41 10° 44° (NE) 2,498 5.6 -6.4°
Sets 19:52:23 0° 35° (NE) 3,438 6.4 -6.8°
